Aérodrome :
LOGIN :

S'inscrire | Disclaimer

   EN    FR    IT 

 










Légende :    VFR   VFR Marginal   IFR   IFR Intensif   IFR Très Intensif
Visi : 
Plafond : 
>= 8 km
>= 3000ft
5 à 8 km
1000 à 3000 ft
1500m à 5 km
500 à 1000 ft
800 à 1500m
200 à 500 ft
< 800m
< 200 ft
Symboles :   Orages  Brouillard  Fortes neiges  Fortes précipitations  Vent > 20 kt
SIGMETs :   Divers  Orages  Givrage  Turbulence  Onde Orograph.  Cendres Volcan.







- Altitude de l'aérodrome : 187 ft


LPMR - Monte Real Air Base

DERNIER METAR :
  • 210900Z 15005KT 110V180 CAVOK 26/12 Q1015

METARs EXPIRÉS :
  • 210800Z 17004KT CAVOK 23/13 Q1015
  • 210700Z 17004KT CAVOK 19/13 Q1015

TAF TAF LPMR
Valide du 20 à 18h jusqu'au 21 à 18h UTC


201700Z 2018/2118 33010KT CAVOK
BECMG 2020/2022 VRB02KT
BECMG 2106/2109 25008KT
Pas de NOTAMs connus pour ce terrain.



MET'MAP, la Météo Aéronautique d'un coup d'oeil ! - Copyright ORBIFLY Décembre 2007 - Disclaimer

ORBIFLY MET'MAP TEAM :

Programmation & Développement : Alexandra Zaïnal
Conception & Développement : Baudouin d'Aumeries
Co-Programmation & Développement : Marc-Olivier Méhu
Soutien technique & logistique : Manuel Goepfert

Contact : metmap@orbifly.com




SOURCES & CREDITS :

   NOAA